This is the latest recevied weather packets stored in our database for station/object KJ5JYX. If no packets are shown the sender has not sent any weather packets the latest 10 day(s).
| Time | Temp. | Humidity | Pressure | Rain* | Wind** | Luminosity | Snow |
|---|---|---|---|---|---|---|---|
| 1777776787 | 14.44° C | 90% | 1022.2 hPa | 0 mm | - | 0 W/m² | - |
| 1777776484 | 14.44° C | 89% | 1022.3 hPa | 0 mm | - | 0 W/m² | - |
| 1777776180 | 14.44° C | 88% | 1022.2 hPa | 0 mm | - | 0 W/m² | - |
| 1777775878 | 14.44° C | 87% | 1022.5 hPa | 0 mm | - | 0 W/m² | - |
| 1777775575 | 15° C | 86% | 1022.3 hPa | 0 mm | - | 0 W/m² | - |
| 1777775271 | 15° C | 85% | 1022.3 hPa | 0 mm | - | 0 W/m² | - |
| 1777774971 | 15° C | 84% | 1022.1 hPa | 0 mm | - | 0 W/m² | - |
| 1777774668 | 15.56° C | 82% | 1021.8 hPa | 0 mm | - | 0 W/m² | - |
| 1777774363 | 15.56° C | 81% | 1021.8 hPa | 0 mm | - | 0 W/m² | - |
| 1777774062 | 15.56° C | 81% | 1021.5 hPa | 0 mm | - | 0 W/m² | - |
| 1777773759 | 16.11° C | 81% | 1021.6 hPa | 0 mm | - | 0 W/m² | - |
| 1777773455 | 16.11° C | 76% | 1021.6 hPa | 0 mm | - | 0 W/m² | - |
| 1777773152 | 16.67° C | 75% | 1021.5 hPa | 0 mm | - | 0 W/m² | - |
| 1777772848 | 16.67° C | 73% | 1021.6 hPa | 0 mm | - | 0 W/m² | - |
| 1777772547 | 17.22° C | 70% | 1021.5 hPa | 0 mm | - | 0 W/m² | - |
| 1777772243 | 17.22° C | 70% | 1021.6 hPa | 0 mm | - | 0 W/m² | - |
| 1777771941 | 17.78° C | 69% | 1021.4 hPa | 0 mm | - | 0 W/m² | - |
| 1777771638 | 17.78° C | 67% | 1021.5 hPa | 0 mm | - | 0 W/m² | - |
| 1777771335 | 18.33° C | 65% | 1021.4 hPa | 0 mm | - | 1 W/m² | - |
| 1777771032 | 18.33° C | 66% | 1021.5 hPa | 0 mm | - | 1 W/m² | - |
| 1777770728 | 18.89° C | 65% | 1021.5 hPa | 0 mm | - | 2 W/m² | - |
| 1777770425 | 18.89° C | 63% | 1021.2 hPa | 0 mm | - | 4 W/m² | - |
| 1777770122 | 18.89° C | 63% | 1021.3 hPa | 0 mm | - | 6 W/m² | - |
| 1777769819 | 19.44° C | 62% | 1021.4 hPa | 0 mm | - | 8 W/m² | - |
| 1777769516 | 19.44° C | 57% | 1021.1 hPa | 0 mm | - | 10 W/m² | - |
* Rain latest hour (hover to see other rain measurements)
** Current wind speed in m/s (hover to see current wind gust speed)